Flag for U.S.A. Weather past 2 weeks in Fort Lauderdale, Florida, U.S.A.

Now
89 °F

Partly sunny.


Feels Like: 97 °F
Forecast: 83 / 91 °F
Wind: 16 mph from East

Location: Fort Lauderdale / Hollywood International Airport

Current Time: Aug 30, 2014 at 7:05:23 PM

Latest Report: Aug 30, 2014 at 5:53 PM


Visibility: 10 mi

Pressure: 30.03 "Hg

Humidity: 59%

Dew point: 73 °F

Location of Fort LauderdaleLocation

Historic Weather in Fort Lauderdale — Graph

°F

Fort Lauderdale temperature yesterday

Maximum temperature yesterday: 91 °F (at 11:48 AM)
Minimum temperature yesterday: 83 °F (at 2:53 AM)
Average temperature yesterday: 87 °F

Past Weeks' High & Low Weather Summary

 TemperatureHumidityPressure
High94 °F (Aug 24, 2:53 PM)93% (Aug 17, 1:53 AM)30.11 "Hg (Aug 17, 1:53 AM)
Low77 °F (Aug 16, 3:53 AM)46% (Aug 19, 3:53 PM)29.71 "Hg (Aug 25, 4:53 PM)
Average86 °F69%29.98 "Hg
* Reported Aug 15 5:53 PM — Aug 30 5:53 PM, Fort Lauderdale, Weather by CustomWeather, © 2014

Note: Actual official high and low records may vary slightly from our data, if they occured in-between our weather recording intervals... More about our weather records

Advertising

Fort Lauderdale weather history for previous 24 hours

 ConditionsComfort  
Time TempWeatherWind HumidityBarometerVisibility
5:53 PM
Aug 30
89 °FPartly sunny.16 mph59%30.03 "Hg10 mi
4:53 PM89 °FScattered clouds.17 mph63%30.04 "Hg10 mi
3:53 PM89 °FScattered clouds.12 mph65%30.06 "Hg10 mi
2:53 PM91 °FScattered clouds.15 mph60%30.06 "Hg10 mi
1:53 PM91 °FPartly sunny.15 mph57%30.09 "Hg10 mi
12:53 PM90 °FScattered clouds.14 mph59%30.10 "Hg10 mi
11:53 AM90 °FScattered clouds.13 mph63%30.11 "Hg10 mi
10:53 AM89 °FPassing clouds.14 mph63%30.10 "Hg10 mi
9:53 AM89 °FScattered clouds.14 mph63%30.09 "Hg10 mi
8:53 AM87 °FPartly sunny.13 mph69%30.09 "Hg10 mi
7:53 AM86 °FMostly cloudy.14 mph70%30.10 "Hg10 mi
6:53 AM85 °FPassing clouds.12 mph72%30.08 "Hg10 mi
5:53 AM84 °FPassing clouds.10 mph77%30.06 "Hg10 mi
4:53 AM84 °FPassing clouds.10 mph77%30.05 "Hg10 mi
3:53 AM84 °FPassing clouds.10 mph83%30.05 "Hg10 mi
3:03 AM78 °FStrong thunderstorms. Mostly cloudy.13 mph82%30.08 "Hg3 mi
2:53 AM81 °FLight rain. Passing clouds.6 mph79%30.08 "Hg7 mi
1:53 AM86 °FPassing clouds.9 mph72%30.09 "Hg10 mi
12:53 AM86 °FPartly cloudy.10 mph75%30.09 "Hg10 mi
11:53 PM
Aug 29
87 °FPassing clouds.12 mph69%30.09 "Hg10 mi
10:53 PM86 °FPassing clouds.9 mph72%30.09 "Hg10 mi
9:53 PM86 °FPassing clouds.10 mph72%30.06 "Hg10 mi
8:53 PM87 °FPassing clouds.12 mph67%30.05 "Hg10 mi
7:53 PM87 °FPassing clouds.10 mph69%30.04 "Hg10 mi
Weather by CustomWeather, © 2014

See weather overviewHow to use our weather pages